| time (UTC) | temp C | wind direction | speed KPH | gust KPH | rain 1hr cm | rain 24hr cm | rain mn cm | humidity % | barometer mb |
| 20260509125802 | 12 | 324 | 9.7 | 19.3 | 0.00 | 0.00 | 0.00 | 54 | 1003.0 |
| 20260509125307 | 12 | 324 | 8.0 | 19.3 | 0.00 | 0.00 | 0.00 | 54 | 1002.8 |
| 20260509124803 | 12 | 322 | 8.0 | 14.5 | 0.00 | 0.00 | 0.00 | 54 | 1002.8 |
| 20260509124302 | 11 | 311 | 3.2 | 8.0 | 0.00 | 0.00 | 0.00 | 54 | 1002.8 |
| 20260509123803 | 11 | 306 | 1.6 | 8.0 | 0.00 | 0.00 | 0.00 | 54 | 1002.8 |
| 20260509123302 | 11 | 270 | 0.0 | 3.2 | 0.00 | 0.00 | 0.00 | 54 | 1002.8 |
| 20260509122802 | 10 | 250 | 1.6 | 3.2 | 0.00 | 0.00 | 0.00 | 54 | 1002.7 |
| 20260509122305 | 10 | 253 | 1.6 | 4.8 | 0.00 | 0.00 | 0.00 | 54 | 1002.8 |
| 20260509121302 | 9 | 0 | 0.0 | 3.2 | 0.00 | 0.00 | 0.00 | 54 | 1002.7 |
| 20260509120802 | 8 | 0 | 3.2 | 4.8 | 0.00 | 0.00 | 0.00 | 54 | 1002.8 |
| 20260509115802 | 8 | 0 | 1.6 | 3.2 | 0.00 | 0.00 | 0.00 | 50 | 1002.5 |
| 20260509115306 | 8 | 0 | 0.0 | 1.6 | 0.00 | 0.00 | 0.00 | 50 | 1002.2 |
| 20260509114802 | 8 | 0 | 0.0 | 1.6 | 0.00 | 0.00 | 0.00 | 50 | 1002.1 |
| 20260509114302 | 9 | 0 | 0.0 | 0.0 | 0.00 | 0.00 | 0.00 | 50 | 1002.0 |
| 20260509113802 | 9 | 0 | 0.0 | 1.6 | 0.00 | 0.00 | 0.00 | 50 | 1002.1 |
| 20260509113303 | 9 | 0 | 3.2 | 8.0 | 0.00 | 0.00 | 0.00 | 50 | 1002.2 |
| 20260509112306 | 8 | 0 | 3.2 | 8.0 | 0.00 | 0.00 | 0.00 | 50 | 1001.9 |
| 20260509111303 | 9 | 0 | 1.6 | 4.8 | 0.00 | 0.00 | 0.00 | 50 | 1002.4 |
| 20260509110303 | 8 | 0 | 3.2 | 8.0 | 0.00 | 0.00 | 0.00 | 52 | 1002.2 |
| 20260509105802 | 8 | 0 | 3.2 | 8.0 | 0.00 | 0.00 | 0.00 | 63 | 1002.2 |
| 20260509105305 | 8 | 0 | 3.2 | 8.0 | 0.00 | 0.00 | 0.00 | 63 | 1002.1 |
| 20260509104802 | 7 | 0 | 3.2 | 4.8 | 0.00 | 0.00 | 0.00 | 63 | 1002.0 |
| 20260509103802 | 7 | 0 | 0.0 | 4.8 | 0.00 | 0.00 | 0.00 | 63 | 1001.6 |
| 20260509103302 | 7 | 0 | 1.6 | 4.8 | 0.00 | 0.00 | 0.00 | 63 | 1001.8 |
| 20260509102803 | 7 | 356 | 1.6 | 4.8 | 0.00 | 0.00 | 0.00 | 63 | 1001.9 |
| 20260509102305 | 7 | 0 | 0.0 | 0.0 | 0.00 | 0.00 | 0.00 | 63 | 1001.8 |
| 20260509101803 | 7 | 0 | 0.0 | 1.6 | 0.00 | 0.00 | 0.00 | 63 | 1001.9 |
| 20260509100802 | 8 | 0 | 1.6 | 8.0 | 0.00 | 0.00 | 0.00 | 63 | 1001.8 |
| 20260509100303 | 7 | 0 | 3.2 | 8.0 | 0.00 | 0.00 | 0.00 | 63 | 1001.7 |
| 20260509095803 | 6 | 266 | 8.0 | 19.3 | 0.00 | 0.00 | 0.00 | 58 | 1001.7 |
| 20260509095305 | 5 | 299 | 9.7 | 20.9 | 0.00 | 0.00 | 0.00 | 58 | 1001.8 |
| 20260509094803 | 5 | 233 | 0.0 | 0.0 | 0.00 | 0.00 | 0.00 | 58 | 1001.0 |
| 20260509092305 | 5 | 236 | 0.0 | 0.0 | 0.00 | 0.00 | 0.00 | 58 | 1001.2 |
| 20260509091803 | 5 | 237 | 0.0 | 0.0 | 0.00 | 0.00 | 0.00 | 58 | 1001.3 |
| 20260509091302 | 5 | 236 | 0.0 | 0.0 | 0.00 | 0.00 | 0.00 | 58 | 1001.2 |
| 20260509090803 | 5 | 237 | 0.0 | 0.0 | 0.00 | 0.00 | 0.00 | 58 | 1001.2 |
| 20260509090303 | 5 | 238 | 0.0 | 0.0 | 0.00 | 0.00 | 0.00 | 58 | 1001.3 |
| 20260509085803 | 5 | 239 | 0.0 | 0.0 | 0.00 | 0.00 | 0.00 | 61 | 1001.2 |
| 20260509085306 | 5 | 240 | 0.0 | 0.0 | 0.00 | 0.00 | 0.00 | 61 | 1001.2 |
| 20260509084803 | 5 | 240 | 0.0 | 0.0 | 0.00 | 0.00 | 0.00 | 61 | 1001.2 |
| 20260509083802 | 5 | 240 | 0.0 | 0.0 | 0.00 | 0.00 | 0.00 | 61 | 1001.2 |
| 20260509083303 | 5 | 240 | 0.0 | 0.0 | 0.00 | 0.00 | 0.00 | 61 | 1001.2 |
| 20260509082803 | 5 | 242 | 0.0 | 0.0 | 0.00 | 0.00 | 0.00 | 61 | 1001.2 |
| 20260509082306 | 5 | 241 | 0.0 | 0.0 | 0.00 | 0.00 | 0.00 | 61 | 1001.3 |
| 20260509081802 | 5 | 241 | 0.0 | 0.0 | 0.00 | 0.00 | 0.00 | 61 | 1001.0 |
| 20260509081302 | 5 | 242 | 0.0 | 0.0 | 0.00 | 0.00 | 0.00 | 61 | 1000.9 |
| 20260509080803 | 5 | 242 | 0.0 | 0.0 | 0.00 | 0.00 | 0.00 | 61 | 1000.9 |
| 20260509080302 | 5 | 242 | 0.0 | 0.0 | 0.00 | 0.00 | 0.00 | 59 | 1000.9 |
| 20260509075802 | 5 | 242 | 0.0 | 0.0 | 0.00 | 0.00 | 0.00 | 48 | 1001.0 |
| 20260509075306 | 5 | 242 | 0.0 | 0.0 | 0.00 | 0.00 | 0.00 | 48 | 1001.0 |
| 20260509074803 | 5 | 243 | 0.0 | 0.0 | 0.00 | 0.00 | 0.00 | 48 | 1001.2 |
| 20260509074302 | 6 | 243 | 0.0 | 0.0 | 0.00 | 0.00 | 0.00 | 48 | 1001.2 |
| 20260509073803 | 6 | 242 | 0.0 | 0.0 | 0.00 | 0.00 | 0.00 | 48 | 1001.2 |
| 20260509073302 | 6 | 243 | 0.0 | 0.0 | 0.00 | 0.00 | 0.00 | 48 | 1001.3 |
| 20260509072803 | 6 | 242 | 0.0 | 0.0 | 0.00 | 0.00 | 0.00 | 48 | 1001.3 |
| 20260509072306 | 6 | 243 | 0.0 | 0.0 | 0.00 | 0.00 | 0.00 | 48 | 1001.4 |
| 20260509071803 | 6 | 242 | 0.0 | 0.0 | 0.00 | 0.00 | 0.00 | 48 | 1001.4 |
| 20260509071302 | 6 | 243 | 0.0 | 0.0 | 0.00 | 0.00 | 0.00 | 48 | 1001.4 |
| 20260509070803 | 6 | 242 | 0.0 | 0.0 | 0.00 | 0.00 | 0.00 | 48 | 1001.5 |
| 20260509065803 | 6 | 274 | 0.0 | 0.0 | 0.00 | 0.00 | 0.00 | 42 | 1001.6 |
| 20260509064802 | 7 | 262 | 0.0 | 0.0 | 0.00 | 0.00 | 0.00 | 42 | 1001.8 |
| 20260509064303 | 7 | 262 | 0.0 | 0.0 | 0.00 | 0.00 | 0.00 | 42 | 1001.8 |
| 20260509063803 | 7 | 265 | 0.0 | 0.0 | 0.00 | 0.00 | 0.00 | 42 | 1001.9 |
| 20260509063302 | 7 | 260 | 0.0 | 0.0 | 0.00 | 0.00 | 0.00 | 42 | 1001.8 |
| 20260509062802 | 8 | 259 | 0.0 | 0.0 | 0.00 | 0.00 | 0.00 | 42 | 1002.0 |
| 20260509062305 | 8 | 274 | 0.0 | 0.0 | 0.00 | 0.00 | 0.00 | 42 | 1002.1 |
| 20260509061803 | 8 | 262 | 0.0 | 0.0 | 0.00 | 0.00 | 0.00 | 42 | 1001.9 |
| 20260509061302 | 8 | 0 | 0.0 | 0.0 | 0.00 | 0.00 | 0.00 | 42 | 1001.9 |
| 20260509060802 | 9 | 235 | 0.0 | 0.0 | 0.00 | 0.00 | 0.00 | 42 | 1001.9 |
| 20260509060302 | 10 | 237 | 0.0 | 0.0 | 0.00 | 0.00 | 0.00 | 42 | 1002.0 |
| 20260509055306 | 10 | 240 | 0.0 | 0.0 | 0.00 | 0.00 | 0.00 | 37 | 1002.1 |
| 20260509054802 | 10 | 244 | 0.0 | 1.6 | 0.00 | 0.00 | 0.00 | 37 | 1002.2 |
| 20260509053802 | 10 | 311 | 0.0 | 0.0 | 0.00 | 0.00 | 0.00 | 37 | 1002.2 |
| 20260509053302 | 11 | 341 | 0.0 | 1.6 | 0.00 | 0.00 | 0.00 | 37 | 1002.2 |
| 20260509052803 | 11 | 348 | 0.0 | 3.2 | 0.00 | 0.00 | 0.00 | 37 | 1002.2 |
| 20260509052306 | 11 | 239 | 1.6 | 3.2 | 0.00 | 0.00 | 0.00 | 37 | 1002.3 |
| 20260509050811 | 12 | 267 | 1.6 | 3.2 | 0.00 | 0.00 | 0.00 | 37 | 1002.3 |
| 20260509050302 | 12 | 230 | 1.6 | 4.8 | 0.00 | 0.00 | 0.00 | 37 | 1002.3 |
| 20260509045802 | 13 | 262 | 1.6 | 9.7 | 0.00 | 0.00 | 0.00 | 34 | 1002.3 |
| 20260509045306 | 13 | 290 | 1.6 | 4.8 | 0.00 | 0.00 | 0.00 | 34 | 1002.3 |
| 20260509044302 | 13 | 268 | 3.2 | 12.9 | 0.00 | 0.00 | 0.00 | 34 | 1002.2 |
| 20260509043803 | 13 | 279 | 4.8 | 12.9 | 0.00 | 0.00 | 0.00 | 34 | 1002.2 |
| 20260509043303 | 14 | 289 | 8.0 | 12.9 | 0.00 | 0.00 | 0.00 | 34 | 1002.1 |
| 20260509042803 | 14 | 256 | 4.8 | 12.9 | 0.00 | 0.00 | 0.00 | 34 | 1002.1 |
| 20260509041803 | 14 | 278 | 4.8 | 12.9 | 0.00 | 0.00 | 0.00 | 34 | 1002.0 |
| 20260509041302 | 14 | 267 | 6.4 | 11.3 | 0.00 | 0.00 | 0.00 | 34 | 1002.0 |
| 20260509040803 | 14 | 285 | 8.0 | 14.5 | 0.00 | 0.00 | 0.00 | 34 | 1002.0 |
| 20260509040302 | 14 | 281 | 8.0 | 14.5 | 0.00 | 0.00 | 0.00 | 34 | 1002.0 |
| 20260509035803 | 14 | 277 | 4.8 | 12.9 | 0.00 | 0.00 | 0.00 | 34 | 1001.9 |
| 20260509033802 | 14 | 251 | 3.2 | 4.8 | 0.00 | 0.00 | 0.00 | 34 | 1001.9 |
| 20260509033303 | 14 | 267 | 3.2 | 4.8 | 0.00 | 0.00 | 0.00 | 34 | 1001.9 |
| 20260509032802 | 14 | 279 | 3.2 | 12.9 | 0.00 | 0.00 | 0.00 | 34 | 1001.8 |
| 20260509032306 | 14 | 274 | 4.8 | 11.3 | 0.00 | 0.00 | 0.00 | 34 | 1001.8 |
| 20260509031803 | 14 | 245 | 3.2 | 11.3 | 0.00 | 0.00 | 0.00 | 34 | 1001.7 |
| 20260509030802 | 15 | 267 | 3.2 | 4.8 | 0.00 | 0.00 | 0.00 | 34 | 1001.6 |
| 20260509030302 | 15 | 263 | 3.2 | 4.8 | 0.00 | 0.00 | 0.00 | 34 | 1001.6 |
| 20260509025803 | 14 | 259 | 1.6 | 4.8 | 0.00 | 0.00 | 0.00 | 29 | 1001.5 |
| 20260509025306 | 15 | 262 | 3.2 | 8.0 | 0.00 | 0.00 | 0.00 | 29 | 1001.5 |
| 20260509024802 | 14 | 305 | 3.2 | 9.7 | 0.00 | 0.00 | 0.00 | 29 | 1001.4 |
| 20260509024303 | 14 | 269 | 3.2 | 4.8 | 0.00 | 0.00 | 0.00 | 29 | 1001.4 |
| 20260509023803 | 14 | 260 | 1.6 | 11.3 | 0.00 | 0.00 | 0.00 | 29 | 1001.3 |
| 20260509023303 | 14 | 246 | 1.6 | 4.8 | 0.00 | 0.00 | 0.00 | 29 | 1001.2 |
| 20260509022803 | 14 | 283 | 0.0 | 3.2 | 0.00 | 0.00 | 0.00 | 29 | 1001.2 |
| 20260509022306 | 14 | 285 | 1.6 | 4.8 | 0.00 | 0.00 | 0.00 | 29 | 1001.2 |
| 20260509021803 | 15 | 285 | 1.6 | 4.8 | 0.00 | 0.00 | 0.00 | 29 | 1001.1 |
| 20260509021302 | 15 | 298 | 3.2 | 11.3 | 0.00 | 0.00 | 0.00 | 29 | 1001.1 |
| 20260509020803 | 15 | 317 | 3.2 | 4.8 | 0.00 | 0.00 | 0.00 | 29 | 1001.0 |
| 20260509020303 | 15 | 305 | 0.0 | 1.6 | 0.00 | 0.00 | 0.00 | 29 | 1000.9 |
| 20260509015306 | 15 | 317 | 0.0 | 1.6 | 0.00 | 0.00 | 0.00 | 25 | 1000.8 |
| 20260509014802 | 16 | 318 | 1.6 | 4.8 | 0.00 | 0.00 | 0.00 | 25 | 1000.7 |
| 20260509014302 | 16 | 334 | 0.0 | 3.2 | 0.00 | 0.00 | 0.00 | 25 | 1000.7 |
| 20260509013303 | 17 | 323 | 1.6 | 8.0 | 0.00 | 0.00 | 0.00 | 25 | 1000.7 |
| 20260509012803 | 17 | 294 | 1.6 | 8.0 | 0.00 | 0.00 | 0.00 | 25 | 1000.7 |
| 20260509012306 | 18 | 334 | 4.8 | 14.5 | 0.00 | 0.00 | 0.00 | 25 | 1000.7 |
| 20260509011802 | 18 | 302 | 4.8 | 14.5 | 0.00 | 0.00 | 0.00 | 25 | 1000.7 |
| 20260509010802 | 18 | 282 | 4.8 | 19.3 | 0.00 | 0.00 | 0.00 | 25 | 1000.6 |
| 20260509010302 | 19 | 308 | 4.8 | 16.1 | 0.00 | 0.00 | 0.00 | 25 | 1000.6 |
| 20260509005305 | 20 | 313 | 8.0 | 19.3 | 0.00 | 0.00 | 0.00 | 24 | 1000.5 |
| 20260509004802 | 20 | 308 | 12.9 | 24.1 | 0.00 | 0.00 | 0.00 | 24 | 1000.5 |
| 20260509004303 | 20 | 301 | 8.0 | 19.3 | 0.00 | 0.00 | 0.00 | 24 | 1000.5 |
| 20260509003803 | 20 | 333 | 8.0 | 19.3 | 0.00 | 0.00 | 0.00 | 24 | 1000.5 |
| 20260509003303 | 20 | 289 | 9.7 | 22.5 | 0.00 | 0.00 | 0.00 | 24 | 1000.4 |
| 20260509002803 | 20 | 290 | 4.8 | 11.3 | 0.00 | 0.00 | 0.00 | 24 | 1000.5 |
| 20260509002306 | 20 | 300 | 8.0 | 14.5 | 0.00 | 0.00 | 0.00 | 24 | 1000.4 |
| 20260509001803 | 20 | 276 | 1.6 | 14.5 | 0.00 | 0.00 | 0.00 | 24 | 1000.4 |
| 20260509001303 | 20 | 306 | 11.3 | 19.3 | 0.00 | 0.00 | 0.00 | 24 | 1000.5 |
| 20260509000803 | 20 | 254 | 8.0 | 19.3 | 0.00 | 0.00 | 0.00 | 24 | 1000.4 |
| 20260509000303 | 20 | 286 | 11.3 | 19.3 | 0.00 | 0.00 | 0.00 | 24 | 1000.4 |
| 20260508235306 | 20 | 279 | 9.7 | 19.3 | 0.00 | 0.00 | 0.00 | 23 | 1000.4 |
| 20260508234803 | 21 | 328 | 8.0 | 19.3 | 0.00 | 0.00 | 0.00 | 23 | 1000.4 |
| 20260508234302 | 21 | 312 | 6.4 | 22.5 | 0.00 | 0.00 | 0.00 | 23 | 1000.5 |
| 20260508233802 | 21 | 294 | 9.7 | 20.9 | 0.00 | 0.00 | 0.00 | 23 | 1000.6 |
| 20260508233302 | 21 | 277 | 9.7 | 20.9 | 0.00 | 0.00 | 0.00 | 23 | 1000.5 |
| 20260508232306 | 21 | 287 | 9.7 | 22.5 | 0.00 | 0.00 | 0.00 | 23 | 1000.6 |
| 20260508231802 | 21 | 296 | 8.0 | 22.5 | 0.00 | 0.00 | 0.00 | 23 | 1000.6 |
| 20260508230803 | 21 | 298 | 14.5 | 29.0 | 0.00 | 0.00 | 0.00 | 23 | 1000.8 |
| 20260508225306 | 21 | 242 | 9.7 | 19.3 | 0.00 | 0.00 | 0.00 | 23 | 1000.8 |
| 20260508224803 | 21 | 210 | 9.7 | 20.9 | 0.00 | 0.00 | 0.00 | 23 | 1000.8 |
| 20260508224302 | 21 | 251 | 11.3 | 24.1 | 0.00 | 0.00 | 0.00 | 23 | 1000.8 |
| 20260508223802 | 21 | 266 | 3.2 | 16.1 | 0.00 | 0.00 | 0.00 | 23 | 1000.9 |
| 20260508222306 | 20 | 292 | 9.7 | 16.1 | 0.00 | 0.00 | 0.00 | 23 | 1001.1 |
| 20260508221803 | 21 | 281 | 8.0 | 16.1 | 0.00 | 0.00 | 0.00 | 23 | 1001.1 |
| 20260508221302 | 21 | 314 | 6.4 | 19.3 | 0.00 | 0.00 | 0.00 | 23 | 1001.2 |
| 20260508220803 | 21 | 296 | 8.0 | 19.3 | 0.00 | 0.00 | 0.00 | 23 | 1001.2 |
| 20260508220303 | 21 | 266 | 6.4 | 16.1 | 0.00 | 0.00 | 0.00 | 23 | 1001.3 |
| 20260508215802 | 20 | 187 | 1.6 | 19.3 | 0.00 | 0.00 | 0.00 | 22 | 1001.4 |
| 20260508215306 | 20 | 266 | 9.7 | 19.3 | 0.00 | 0.00 | 0.00 | 22 | 1001.4 |
| 20260508214803 | 20 | 314 | 4.8 | 12.9 | 0.00 | 0.00 | 0.00 | 22 | 1001.6 |
| 20260508214303 | 21 | 231 | 8.0 | 16.1 | 0.00 | 0.00 | 0.00 | 22 | 1001.6 |
| 20260508213803 | 21 | 203 | 4.8 | 20.9 | 0.00 | 0.00 | 0.00 | 22 | 1001.7 |
| 20260508212803 | 20 | 275 | 11.3 | 25.7 | 0.00 | 0.00 | 0.00 | 22 | 1001.8 |
| 20260508212306 | 20 | 272 | 4.8 | 9.7 | 0.00 | 0.00 | 0.00 | 22 | 1001.9 |
| 20260508211803 | 21 | 296 | 3.2 | 19.3 | 0.00 | 0.00 | 0.00 | 22 | 1002.0 |
| 20260508210302 | 21 | 288 | 9.7 | 20.9 | 0.00 | 0.00 | 0.00 | 22 | 1002.3 |
| 20260508204802 | 21 | 302 | 8.0 | 25.7 | 0.00 | 0.00 | 0.00 | 24 | 1002.5 |
| 20260508204303 | 21 | 270 | 8.0 | 20.9 | 0.00 | 0.00 | 0.00 | 24 | 1002.5 |
| 20260508203803 | 20 | 306 | 8.0 | 19.3 | 0.00 | 0.00 | 0.00 | 24 | 1002.6 |
| 20260508203303 | 20 | 222 | 6.4 | 20.9 | 0.00 | 0.00 | 0.00 | 24 | 1002.7 |
| 20260508202802 | 20 | 299 | 9.7 | 20.9 | 0.00 | 0.00 | 0.00 | 24 | 1002.9 |
| 20260508202306 | 20 | 248 | 8.0 | 24.1 | 0.00 | 0.00 | 0.00 | 24 | 1002.9 |
| 20260508201802 | 20 | 274 | 4.8 | 12.9 | 0.00 | 0.00 | 0.00 | 24 | 1002.9 |
| 20260508201303 | 20 | 259 | 16.1 | 33.8 | 0.00 | 0.00 | 0.00 | 24 | 1003.0 |
| 20260508195803 | 20 | 297 | 6.4 | 16.1 | 0.00 | 0.00 | 0.00 | 24 | 1003.1 |
| 20260508195306 | 20 | 216 | 8.0 | 19.3 | 0.00 | 0.00 | 0.00 | 24 | 1003.2 |
| 20260508194802 | 21 | 265 | 9.7 | 22.5 | 0.00 | 0.00 | 0.00 | 24 | 1003.3 |
| 20260508194303 | 20 | 289 | 8.0 | 19.3 | 0.00 | 0.00 | 0.00 | 24 | 1003.3 |
| 20260508193803 | 20 | 274 | 8.0 | 22.5 | 0.00 | 0.00 | 0.00 | 24 | 1003.4 |
| 20260508192803 | 21 | 258 | 9.7 | 32.2 | 0.00 | 0.00 | 0.00 | 24 | 1003.4 |
| 20260508192305 | 21 | 264 | 11.3 | 22.5 | 0.00 | 0.00 | 0.00 | 24 | 1003.6 |
| 20260508191803 | 21 | 295 | 14.5 | 24.1 | 0.00 | 0.00 | 0.00 | 24 | 1003.7 |
| 20260508191303 | 21 | 319 | 9.7 | 22.5 | 0.00 | 0.00 | 0.00 | 24 | 1003.7 |
| 20260508190803 | 21 | 263 | 9.7 | 24.1 | 0.00 | 0.00 | 0.00 | 24 | 1003.8 |
| 20260508185802 | 21 | 252 | 11.3 | 19.3 | 0.00 | 0.00 | 0.00 | 23 | 1004.0 |
| 20260508185306 | 21 | 235 | 11.3 | 27.4 | 0.00 | 0.00 | 0.00 | 23 | 1004.1 |
| 20260508184803 | 21 | 297 | 8.0 | 19.3 | 0.00 | 0.00 | 0.00 | 23 | 1004.0 |
| 20260508184302 | 21 | 222 | 9.7 | 19.3 | 0.00 | 0.00 | 0.00 | 23 | 1004.1 |
| 20260508183803 | 20 | 197 | 6.4 | 19.3 | 0.00 | 0.00 | 0.00 | 23 | 1004.2 |
| 20260508182803 | 20 | 294 | 4.8 | 24.1 | 0.00 | 0.00 | 0.00 | 23 | 1004.4 |
| 20260508181803 | 20 | 289 | 11.3 | 19.3 | 0.00 | 0.00 | 0.00 | 23 | 1004.5 |
| 20260508181303 | 20 | 275 | 9.7 | 19.3 | 0.00 | 0.00 | 0.00 | 23 | 1004.6 |
| 20260508180803 | 20 | 257 | 11.3 | 25.7 | 0.00 | 0.00 | 0.00 | 23 | 1004.8 |
| 20260508180302 | 20 | 248 | 9.7 | 24.1 | 0.00 | 0.00 | 0.00 | 23 | 1004.9 |
| 20260508175802 | 19 | 297 | 9.7 | 19.3 | 0.00 | 0.00 | 0.00 | 24 | 1004.9 |
| 20260508175305 | 20 | 269 | 9.7 | 24.1 | 0.00 | 0.00 | 0.00 | 24 | 1005.0 |
| 20260508174803 | 20 | 298 | 4.8 | 11.3 | 0.00 | 0.00 | 0.00 | 24 | 1005.0 |
| 20260508173802 | 20 | 271 | 16.1 | 29.0 | 0.00 | 0.00 | 0.00 | 24 | 1005.4 |
| 20260508173302 | 20 | 327 | 4.8 | 19.3 | 0.00 | 0.00 | 0.00 | 24 | 1005.5 |
| 20260508172802 | 18 | 238 | 8.0 | 19.3 | 0.00 | 0.00 | 0.00 | 24 | 1005.6 |
| 20260508172306 | 20 | 248 | 6.4 | 24.1 | 0.00 | 0.00 | 0.00 | 24 | 1005.7 |
| 20260508171802 | 19 | 231 | 9.7 | 29.0 | 0.00 | 0.00 | 0.00 | 24 | 1005.8 |
| 20260508171303 | 18 | 221 | 8.0 | 19.3 | 0.00 | 0.00 | 0.00 | 24 | 1005.9 |
| 20260508170803 | 18 | 282 | 8.0 | 20.9 | 0.00 | 0.00 | 0.00 | 24 | 1006.0 |
| 20260508170303 | 20 | 295 | 12.9 | 20.9 | 0.00 | 0.00 | 0.00 | 24 | 1006.2 |
| 20260508165802 | 19 | 231 | 11.3 | 22.5 | 0.00 | 0.00 | 0.00 | 27 | 1006.2 |
| 20260508165306 | 18 | 286 | 11.3 | 20.9 | 0.00 | 0.00 | 0.00 | 27 | 1006.3 |
| 20260508164803 | 19 | 239 | 6.4 | 19.3 | 0.00 | 0.00 | 0.00 | 27 | 1006.3 |
| 20260508164302 | 19 | 253 | 9.7 | 20.9 | 0.00 | 0.00 | 0.00 | 27 | 1006.3 |
| 20260508163803 | 18 | 192 | 1.6 | 19.3 | 0.00 | 0.00 | 0.00 | 27 | 1006.4 |
| 20260508163303 | 17 | 239 | 8.0 | 24.1 | 0.00 | 0.00 | 0.00 | 27 | 1006.5 |
| 20260508162803 | 18 | 257 | 8.0 | 20.9 | 0.00 | 0.00 | 0.00 | 27 | 1006.4 |
| 20260508162306 | 18 | 224 | 9.7 | 22.5 | 0.00 | 0.00 | 0.00 | 27 | 1006.5 |
| 20260508161802 | 18 | 250 | 12.9 | 32.2 | 0.00 | 0.00 | 0.00 | 27 | 1006.7 |
| 20260508161303 | 18 | 268 | 11.3 | 24.1 | 0.00 | 0.00 | 0.00 | 27 | 1006.7 |
| 20260508160803 | 18 | 244 | 6.4 | 19.3 | 0.00 | 0.00 | 0.00 | 27 | 1006.7 |
| 20260508160303 | 18 | 249 | 11.3 | 25.7 | 0.00 | 0.00 | 0.00 | 27 | 1006.7 |
| 20260508155803 | 18 | 250 | 4.8 | 20.9 | 0.00 | 0.00 | 0.00 | 30 | 1006.7 |
| 20260508154803 | 17 | 241 | 6.4 | 19.3 | 0.00 | 0.00 | 0.00 | 30 | 1006.8 |
| 20260508154303 | 16 | 0 | 4.8 | 16.1 | 0.00 | 0.00 | 0.00 | 30 | 1006.9 |
| 20260508153803 | 16 | 261 | 11.3 | 22.5 | 0.00 | 0.00 | 0.00 | 30 | 1006.8 |
| 20260508153303 | 17 | 211 | 8.0 | 25.7 | 0.00 | 0.00 | 0.00 | 30 | 1006.9 |
| 20260508152803 | 17 | 224 | 9.7 | 24.1 | 0.00 | 0.00 | 0.00 | 30 | 1007.0 |
| 20260508152305 | 16 | 261 | 9.7 | 20.9 | 0.00 | 0.00 | 0.00 | 30 | 1007.1 |
| 20260508151803 | 16 | 249 | 11.3 | 24.1 | 0.00 | 0.00 | 0.00 | 30 | 1007.2 |
| 20260508150803 | 16 | 0 | 6.4 | 19.3 | 0.00 | 0.00 | 0.00 | 30 | 1007.3 |
| 20260508150303 | 16 | 0 | 8.0 | 22.5 | 0.00 | 0.00 | 0.00 | 30 | 1007.3 |
| 20260508145802 | 15 | 0 | 8.0 | 20.9 | 0.00 | 0.00 | 0.00 | 33 | 1007.4 |
| 20260508145306 | 15 | 0 | 9.7 | 19.3 | 0.00 | 0.00 | 0.00 | 33 | 1007.5 |
| 20260508144803 | 15 | 0 | 8.0 | 20.9 | 0.00 | 0.00 | 0.00 | 33 | 1007.6 |
| 20260508144303 | 15 | 0 | 8.0 | 20.9 | 0.00 | 0.00 | 0.00 | 33 | 1007.6 |
| 20260508143303 | 15 | 239 | 4.8 | 16.1 | 0.00 | 0.00 | 0.00 | 33 | 1007.6 |
| 20260508142306 | 15 | 338 | 9.7 | 24.1 | 0.00 | 0.00 | 0.00 | 33 | 1007.7 |
| 20260508141803 | 15 | 0 | 4.8 | 16.1 | 0.00 | 0.00 | 0.00 | 33 | 1007.8 |
| 20260508141303 | 15 | 0 | 6.4 | 22.5 | 0.00 | 0.00 | 0.00 | 33 | 1007.8 |
| 20260508140803 | 13 | 0 | 9.7 | 20.9 | 0.00 | 0.00 | 0.00 | 33 | 1007.9 |
| 20260508140302 | 13 | 0 | 4.8 | 20.9 | 0.00 | 0.00 | 0.00 | 33 | 1007.9 |
| 20260508135803 | 13 | 0 | 6.4 | 16.1 | 0.00 | 0.00 | 0.00 | 37 | 1008.0 |
| 20260508135305 | 13 | 0 | 12.9 | 22.5 | 0.00 | 0.00 | 0.00 | 37 | 1008.1 |
| 20260508134303 | 12 | 0 | 9.7 | 22.5 | 0.00 | 0.00 | 0.00 | 37 | 1008.2 |
| 20260508133802 | 12 | 0 | 9.7 | 20.9 | 0.00 | 0.00 | 0.00 | 37 | 1008.2 |
| 20260508133303 | 12 | 0 | 6.4 | 20.9 | 0.00 | 0.00 | 0.00 | 37 | 1008.2 |
| 20260508132802 | 12 | 0 | 6.4 | 12.9 | 0.00 | 0.00 | 0.00 | 37 | 1008.2 |
| 20260508132306 | 12 | 0 | 8.0 | 14.5 | 0.00 | 0.00 | 0.00 | 37 | 1008.3 |
| 20260508131303 | 11 | 0 | 9.7 | 19.3 | 0.00 | 0.00 | 0.00 | 37 | 1008.3 |
| 20260508130803 | 11 | 0 | 6.4 | 19.3 | 0.00 | 0.00 | 0.00 | 37 | 1008.3 |
| 20260508130302 | 11 | 0 | 6.4 | 25.7 | 0.00 | 0.00 | 0.00 | 37 | 1008.3 |